YUZGU 9 (RS3S) (53308 NORAD) Tracking and Keplerian Element Data

This shows tracking and keplerian element data for the satellite.

Feedback or suggestion? Click here.




ElementValue
Catalog53308
NameYUZGU 9 (RS3S)
Epoch Orbit1915
Epoch Day325.21993172
Epoch Year2022
RAAN273.1574
Inclination51.6365
Eccentricity0.0008554
Argument of Perigee105.074
Mean Anonmoly255.1203
Mean Motion15.66115117
Decay Rate0.00116193
L11 53308U 98067TT 22325.21993172 .00116193 00000+0 10970-2 0 9996
L22 53308 51.6365 273.1574 0008554 105.0740 255.1203 15.66115117 19153



Live tracking and technical data element details for YUZGU 9 (RS3S) (NORAD 53308). YUZGU 9 (RS3S) can be tracked NOW for your location showing map with azimuth and elevation plus other details from your city location.







IsCatalogInMostPopularTable: catalog: 53308, numindb: 11
Update: records affected: 1



GetName: 53308 YUZGU 9 (RS3S)

Hit Count: updated at: Tue, 29 Nov 2022 02:07:49 GMT